This is the latest recevied weather packets stored in our database for station/object N0KWA. If no packets are shown the sender has not sent any weather packets the latest 10 day(s).
| Time | Temp. | Humidity | Pressure | Rain* | Wind** | Luminosity | Snow |
|---|---|---|---|---|---|---|---|
| 1788032236 | 33.89° C | 42% | 1018.5 hPa | 0 mm | - | 99 W/m² | - |
| 1788031933 | 33.89° C | 44% | 1018.5 hPa | 0 mm | - | 30 W/m² | - |
| 1788031627 | 33.89° C | 44% | 1018.6 hPa | 0 mm | - | 35 W/m² | - |
| 1788031327 | 33.89° C | 43% | 1018.7 hPa | 0 mm | - | 29 W/m² | - |
| 1788031026 | 33.89° C | 50% | 1018.7 hPa | 0 mm | - | 32 W/m² | - |
| 1788030721 | 33.89° C | 51% | 1018.5 hPa | 0 mm | - | 32 W/m² | - |
| 1788030420 | 33.89° C | 49% | 1018.7 hPa | 0 mm | - | 30 W/m² | - |
| 1788030116 | 33.89° C | 48% | 1018.9 hPa | 0 mm | - | 29 W/m² | - |
| 1788029815 | 33.89° C | 49% | 1018.6 hPa | 0 mm | - | 32 W/m² | - |
| 1788029510 | 33.89° C | 50% | 1018.8 hPa | 0 mm | - | 35 W/m² | - |
| 1788029209 | 33.89° C | 51% | 1018.7 hPa | 0 mm | - | 378 W/m² | - |
| 1788028904 | 33.89° C | 48% | 1018.8 hPa | 0 mm | - | 594 W/m² | - |
| 1788028599 | 33.89° C | 49% | 1018.8 hPa | 0 mm | - | 387 W/m² | - |
| 1788028294 | 33.89° C | 46% | 1019.2 hPa | 0 mm | - | 431 W/m² | - |
| 1788027990 | 33.89° C | 49% | 1019 hPa | 0 mm | - | 223 W/m² | - |
| 1788027685 | 33.33° C | 48% | 1019.1 hPa | 0 mm | - | 557 W/m² | - |
| 1788027384 | 33.89° C | 49% | 1019 hPa | 0 mm | - | 771 W/m² | - |
| 1788027078 | 33.33° C | 48% | 1018.9 hPa | 0 mm | - | 753 W/m² | - |
| 1788026773 | 33.33° C | 48% | 1019.1 hPa | 0 mm | - | 573 W/m² | - |
| 1788026469 | 33.33° C | 50% | 1019.1 hPa | 0 mm | - | 77 W/m² | - |
| 1788026169 | 33.33° C | 53% | 1019 hPa | 0 mm | - | 30 W/m² | - |
| 1788025868 | 32.78° C | 50% | 1019.1 hPa | 0 mm | - | 30 W/m² | - |
| 1788025562 | 32.78° C | 50% | 1019.1 hPa | 0 mm | - | 30 W/m² | - |
| 1788025256 | 32.78° C | 56% | 1019.3 hPa | 0 mm | - | 30 W/m² | - |
| 1788024946 | 32.78° C | 56% | 1019.2 hPa | 0 mm | - | 265 W/m² | - |
* Rain latest hour (hover to see other rain measurements)
** Current wind speed in m/s (hover to see current wind gust speed)